Home > Weather > Chico > Past weeks

Flag for USA Weather for the Past 2 Weeks in Chico, California, USA

Now
59 °F

Overcast.


Feels Like: 57 °F
Forecast: 57 / 73 °F
Wind: 10 mph from Southeast

Location: Chico Municipal

Current Time: May 5, 2016 at 6:08:37 AM

Latest Report: May 5, 2016 at 5:15 AM


Visibility: 10 mi

Pressure: 29.82 "Hg

Humidity: 77%

Dew Point: 52 °F

Location of ChicoLocation

Historic Weather in Chico — Graph

°F

Chico Temperature Yesterday

Maximum temperature yesterday: 81 °F (at 12:46 PM)
Minimum temperature yesterday: 59 °F (at 4:35 AM)
Average temperature yesterday: 68 °F

High & Low Weather Summary for the Past Weeks

 TemperatureHumidityPressure
High82 °F (Apr 20, 3:50 PM)100% (Apr 22, 4:55 AM)30.22 "Hg (Apr 22, 4:55 AM)
Low45 °F (Apr 25, 6:45 AM)12% (Apr 20, 3:50 PM)29.75 "Hg (May 4, 4:58 PM)
Average63 °F50%29.93 "Hg
* Reported Apr 20 4:15 AM — May 5 4:55 AM, Chico, Weather by CustomWeather, © 2016

Note: Actual official high and low records may vary slightly from our data, if they occured in-between our weather recording intervals... More about our weather records

Advertising

Chico Weather History for the Previous 24 Hours

Scroll right to see more
 ConditionsComfort  
Time TempWeatherWind HumidityBarometerVisibility
4:55 AM
Thu, May 5
59 °FOvercast.10 mph82%29.82 "Hg10 mi
4:35 AM59 °FOvercast.8 mph82%29.81 "Hg10 mi
4:15 AM59 °FOvercast.9 mph82%29.81 "Hg10 mi
3:55 AM59 °FOvercast.7 mph82%29.81 "Hg10 mi
3:15 AM61 °FOvercast.6 mph77%29.81 "Hg10 mi
2:55 AM63 °FOvercast.No wind73%29.81 "Hg10 mi
2:15 AM63 °FOvercast.6 mph73%29.81 "Hg10 mi
1:55 AM64 °FOvercast.8 mph68%29.81 "Hg10 mi
1:35 AM64 °FPassing clouds.No wind73%29.81 "Hg10 mi
1:15 AM64 °FPassing clouds.No wind68%29.81 "Hg10 mi
12:55 AM66 °FPassing clouds.No wind64%29.81 "Hg10 mi
12:35 AM64 °FPassing clouds.No wind68%29.82 "Hg10 mi
12:15 AM63 °FPassing clouds.No wind77%29.81 "Hg10 mi
11:55 PM
Wed, May 4
68 °FMostly cloudy.No wind60%29.81 "Hg10 mi
11:35 PM68 °FMostly cloudy.No wind60%29.82 "Hg10 mi
10:55 PM68 °FMostly cloudy.3 mph53%29.82 "Hg10 mi
10:15 PM66 °FOvercast.8 mph73%29.82 "Hg10 mi
9:55 PM68 °FMostly cloudy.5 mph60%29.80 "Hg10 mi
9:35 PM68 °FMostly cloudy.6 mph60%29.80 "Hg10 mi
9:15 PM70 °FMostly cloudy.No wind57%29.80 "Hg10 mi
8:55 PM70 °FMostly cloudy.6 mph57%29.79 "Hg10 mi
8:35 PM72 °FCloudy.7 mph53%29.79 "Hg10 mi
8:15 PM73 °FBroken clouds.7 mph50%29.79 "Hg10 mi
7:55 PM73 °FScattered clouds.No wind50%29.78 "Hg10 mi
7:15 PM75 °FSunny.7 mph41%29.77 "Hg10 mi
6:55 PM77 °FSunny.8 mph42%29.77 "Hg10 mi
6:35 PM77 °FSunny.9 mph39%29.77 "Hg10 mi
6:15 PM77 °FSunny.9 mph42%29.76 "Hg10 mi
5:55 PM79 °FSunny.9 mph42%29.76 "Hg10 mi
4:58 PM81 °FMore clouds than sun.13 mph37%29.75 "Hg25 mi
3:48 PM79 °FMore clouds than sun.14 mph45%29.77 "Hg10 mi
2:46 PM75 °FMore clouds than sun.17 mph50%29.79 "Hg25 mi
1:47 PM77 °FMore clouds than sun.17 mph47%29.80 "Hg25 mi
12:46 PM81 °FMore clouds than sun.17 mph30%29.82 "Hg25 mi
10:52 AM72 °FMore clouds than sun.17 mph50%29.86 "Hg25 mi
9:50 AM64 °FMore clouds than sun.9 mph73%29.88 "Hg25 mi
8:55 AM64 °FLight rain. More clouds than sun.7 mph68%29.87 "Hg10 mi
7:56 AM59 °FThunderstorms. More clouds than sun.7 mph88%29.87 "Hg10 mi
6:56 AM63 °FLight rain. Mostly cloudy.17 mph73%29.84 "Hg10 mi
Weather by CustomWeather, © 2016

See weather overviewHow to use our weather pages